User: anonymous   Login
Location: Unspecified
(0.0000°N, 0.0000°E)
Time: 11:53:59
(UTC+00:00)
Language:

DSCS III A-2 - Orbit

View from above orbital plane
View from above orbital plane
View from above satellite
View from above satellite

Ground track
Ground track

The orbit data is extracted from the following two-line orbital elements,

1 20203U 89069B   17262.31307480 0.00000000  00000-0  00000-0 0    06
2 20203  13.1077  29.4866 0013324 292.6967  67.1745  0.99113717    05
Epoch (UTC): 19 September 2017 07:30:49
Eccentricity: 0.0013324
inclination: 13.1077°
perigee height: 36057 km
apogee height: 36170 km
right ascension of ascending node: 29.4866°
argument of perigee: 292.6967°
revolutions per day: 0.99113717
mean anomaly at epoch: 67.1745°
orbit number at epoch: 0

The dashed part of the orbit path shows where the satellite is in the earth's shadow,  

DLR